Date,TemperatureHighF,TemperatureAvgF,TemperatureLowF,DewpointHighF,DewpointAvgF,DewpointLowF,HumidityHigh,HumidityAvg,HumidityLow,PressureMaxIn,PressureMinIn,WindSpeedMaxMPH,WindSpeedAvgMPH,GustSpeedMaxMPH,PrecipitationSumIn
2013-4-1,83.3,60.7,50.3,55.4,48.1,43.0,88,66,33,30.12,30.02,7,0,7,0.02
2013-4-2,96.6,61.7,46.5,56.4,45.6,40.1,81,59,19,30.14,30.02,7,1,7,0.00
2013-4-3,92.6,64.7,49.6,57.0,48.1,42.6,80,58,25,30.10,29.93,7,0,7,0.00
2013-4-4,67.8,59.1,53.7,60.0,50.9,43.4,85,75,60,30.08,29.94,7,1,7,0.27
2013-4-5,75.7,61.2,52.3,53.6,49.6,46.0,88,68,40,30.13,30.05,7,0,7,0.00
2013-4-6,79.3,60.9,52.8,56.7,49.5,46.4,82,68,40,30.15,30.05,7,1,7,0.00
2013-4-7,71.7,59.8,51.9,52.5,47.1,40.9,81,64,48,30.11,29.76,10,2,10,0.02
2013-4-8,80.9,57.7,46.5,46.1,36.7,24.2,82,51,19,29.97,29.71,18,3,18,0.04
2013-4-9,67.6,49.8,43.7,36.2,32.5,30.2,61,52,29,30.04,29.97,12,2,15,0.00
2013-4-10,56.3,54.5,52.7,33.0,32.2,31.1,47,43,40,30.06,30.04,2,0,2,0.00
2013-4-12,98.4,78.0,59.0,49.1,41.7,31.4,52,29,19,29.84,29.75,7,1,7,0.00
2013-4-13,95.3,67.3,50.0,48.6,43.3,38.4,73,46,19,29.84,29.73,7,1,7,0.00
2013-4-14,90.5,62.8,45.6,42.6,38.2,29.0,73,45,19,29.86,29.70,9,1,9,0.00
2013-4-15,72.3,54.9,43.5,46.0,40.1,33.6,77,60,26,29.87,29.77,57,1,57,0.18
2013-4-16,82.2,53.6,35.2,40.0,29.5,17.1,84,47,19,30.13,29.87,12,2,14,0.00
2013-4-17,82.5,58.5,43.3,36.1,23.8,17.3,45,28,19,30.21,30.12,13,3,15,0.00
2013-4-18,96.9,61.1,38.3,47.9,30.3,22.7,60,35,19,30.23,30.13,7,0,7,0.00
2013-4-19,100.5,68.3,48.9,50.8,38.3,33.4,59,37,19,30.20,30.01,8,1,8,0.00
2013-4-20,100.0,67.9,48.9,50.4,39.1,27.7,71,40,19,30.06,29.92,10,1,10,0.00
2013-4-21,104.7,71.6,50.3,54.2,41.4,35.4,67,38,19,30.00,29.88,8,1,10,0.00
2013-4-22,103.1,71.9,52.7,52.9,41.6,28.8,67,38,19,29.93,29.80,12,1,12,0.00
2013-4-23,103.2,70.3,50.3,53.0,36.0,28.4,51,31,19,29.89,29.79,8,1,8,0.00
2013-4-24,106.5,71.8,49.4,55.7,40.7,31.6,62,37,19,29.84,29.70,10,1,10,0.00
2013-4-25,90.3,65.6,52.5,48.9,44.7,41.1,74,50,19,30.06,29.84,8,1,8,0.00
2013-4-26,100.0,69.0,49.6,50.7,45.8,39.5,77,49,19,30.16,30.06,7,1,7,0.00
2013-4-27,105.2,73.2,52.7,54.6,47.5,42.4,73,45,19,30.17,29.99,7,0,8,0.00
2013-4-28,99.8,74.7,54.1,50.9,46.1,40.5,70,41,19,30.00,29.82,8,1,8,0.00
2013-4-29,98.0,75.2,56.4,53.7,46.8,39.9,72,41,19,29.85,29.70,8,1,10,0.00
2013-4-30,88.1,70.8,55.4,46.7,37.7,21.4,63,34,19,29.81,29.71,18,2,18,0.00